#timestamp,LO_Frequency,Hit,StdDev 
1560034815.5,286047001.1,N
1560034835.3,286047000.4,N
1560034855.2,286047000.1,N
1560034875.0,286046999.7,N
1560034875.9,286046999.7,N
1560034895.8,286047001.6,N
1560034915.6,286047004.2,N
1560034935.4,286047003.0,N
1560034955.3,286047005.2,N
1560034975.1,286047005.7,N
1560034995.8,286047005.3,N
1560035015.7,286047006.0,N
1560035035.5,286047005.6,N
1560035055.3,286047004.8,N
1560035075.2,286047005.7,N
1560035095.0,286047003.4,N
1560035095.9,286047003.4,N
1560035115.8,286047005.6,N
1560035135.6,286047003.9,N
1560035155.4,286047003.1,N
1560035175.3,286047002.9,N
1560035195.1,286047006.0,N
1560035215.9,286047003.3,N
1560035235.7,286047003.6,N
1560035255.5,286047007.6,N
1560035275.4,286047005.8,N
1560035295.2,286047004.3,N
1560035315.0,286047000.3,N
1560035316.0,286047000.3,N
1560035335.8,286046998.1,N
1560035355.6,286046998.5,N
1560035375.5,286046998.3,N
1560035395.3,286047000.6,N
1560035415.1,286047002.6,N
1560035435.9,286047004.0,N
1560035455.7,286047003.0,N
1560035475.5,286047004.3,N
1560035495.3,286047001.5,N
1560035515.2,286047002.1,N
1560035535.0,286047003.7,N
1560035535.9,286047003.7,N
1560035555.8,286047002.3,N
1560035575.6,286047001.9,N
1560035595.4,286047001.4,N
1560035615.3,286047004.4,N
1560035635.1,286047002.9,N
1560035655.9,286047007.2,Y
1560035675.7,286047002.0,P
1560035695.5,286047002.8,P
1560035715.4,286047002.2,P
1560035735.2,286047002.2,Y
1560035755.0,286046998.9,P
1560035755.9,286046998.9,N
1560035775.8,286047000.9,N
1560035795.6,286046999.8,N
1560035815.5,286046999.9,N
1560035835.8,286047000.6,N
1560035855.7,286047001.1,N
1560035875.5,286047000.0,N
1560035895.4,286047001.0,N
1560035915.2,286047000.8,N
1560035935.0,286046998.1,N
1560035935.9,286046998.1,N
1560035955.8,286047000.7,N
1560035975.6,286047000.9,N
1560035995.4,286047000.6,N
1560036015.3,286047000.4,N
1560036035.1,286047000.3,N
1560036055.9,286047000.4,N
1560036075.7,286047002.1,N
1560036095.5,286047002.8,N
1560036115.4,286047001.8,N
1560036135.2,286047003.8,Y
1560036155.0,286047002.5,P
1560036156.0,286047002.5,N
1560036175.8,286047000.2,N
1560036195.6,286047000.2,N
1560036215.5,286047000.5,N
1560036235.3,286047000.5,N
1560036255.1,286047002.0,N
1560036275.9,286047001.9,N
1560036295.7,286047000.1,N
1560036315.6,286046998.1,N
1560036335.4,286047001.0,N
1560036355.2,286047000.3,N
1560036375.1,286047000.3,N
1560036376.0,286047000.3,N
1560036395.8,286046998.2,N
1560036415.7,286046998.1,N
1560036435.5,286047000.1,N
1560036455.3,286047002.7,N
1560036475.2,286047002.4,N
1560036495.0,286047000.2,N
1560036495.9,286047000.2,N
1560036515.7,286047000.4,N
1560036535.6,286047002.7,N
1560036555.4,286046998.5,N
1560036575.3,286046998.1,N
1560036595.1,286047000.8,N
1560036596.0,286047000.8,N
1560036615.8,286047002.4,N
1560036635.6,286047001.5,N
1560036655.5,286047001.8,N
1560036675.3,286047002.2,N
1560036695.1,286047001.5,N
1560036715.9,286047002.5,N
1560036735.7,286047002.3,N
1560036755.6,286047000.1,N
1560036775.4,286047002.2,N
1560036795.2,286047002.7,N
1560036815.1,286047002.6,N
1560036816.0,286047002.6,N
1560036835.8,286047002.7,N
1560036855.6,286046999.8,N
1560036875.5,286047002.4,N
1560036895.3,286047002.6,N
1560036915.6,286047002.0,N
1560036935.5,286047001.7,N
1560036955.3,286047001.9,N
1560036975.2,286047002.3,N
1560036995.9,286047001.7,N
1560037015.7,286047003.6,N
1560037035.6,286047003.1,N
1560037055.4,286047004.2,Y
1560037075.3,286047000.1,P
1560037095.1,286047002.6,P
1560037115.3,286047002.5,N
1560037135.1,286046999.9,N
1560037136.0,286046999.9,N
1560037155.8,286047002.4,N
1560037175.7,286047000.3,N
1560037195.5,286047000.0,N
1560037215.3,286047002.7,N
1560037235.2,286047002.6,N
1560037255.0,286047000.2,N
1560037255.9,286047000.2,N
1560037275.8,286046999.8,N
1560037295.6,286047002.8,N
1560037315.4,286047000.0,N
1560037335.3,286046999.9,N
1560037355.1,286047000.8,N
1560037375.8,286046999.7,N
1560037395.7,286047000.8,N
1560037415.5,286046999.0,N
1560037435.4,286047000.5,N
1560037455.2,286047000.6,N
1560037475.0,286047000.9,N
1560037475.9,286047000.9,N
1560037495.8,286047000.5,N
1560037515.6,286047001.0,N
1560037535.4,286047000.1,N
1560037555.3,286046999.8,N
1560037575.1,286047002.0,N
1560037595.8,286047002.4,N
1560037615.7,286047002.4,N
1560037635.5,286047001.6,N
1560037655.4,286047003.7,Y
1560037675.2,286047001.6,P
1560037695.0,286047001.6,P
1560037695.9,286047001.6,P
1560037715.8,286046999.7,N
1560037735.6,286047001.8,N
1560037755.4,286047000.3,N
1560037775.3,286047000.3,N
1560037795.1,286047000.6,N
1560037815.9,286046999.4,N
1560037835.7,286046998.9,N
1560037855.5,286046999.0,N
1560037875.4,286046998.0,N
1560037895.2,286046997.7,N
1560037915.0,286046997.4,N
1560037915.9,286046997.4,N
1560037935.8,286046995.7,N
1560037955.6,286046996.1,N
1560037975.4,286046996.0,N
1560037995.3,286046996.3,N
1560038015.1,286046996.0,N
1560038035.9,286046993.4,Y
1560038055.7,286046995.2,P
1560038075.5,286046995.8,N
1560038095.4,286046997.9,N
1560038115.2,286046997.8,N
1560038135.0,286046996.2,N
1560038135.9,286046996.2,N
1560038155.8,286046995.7,Y
1560038175.6,286046998.3,P
1560038195.5,286046998.1,N
1560038215.3,286047000.8,N
1560038235.2,286046999.5,N
1560038255.9,286046997.0,N
1560038275.7,286046996.8,N
1560038295.6,286046996.9,N
1560038315.4,286046999.2,N
1560038335.2,286046998.5,N
1560038355.1,286046999.3,N
1560038356.0,286046999.3,N
1560038375.8,286046997.4,N
1560038395.7,286046997.5,N
